Time,TemperatureF,DewpointF,PressureIn,WindDirection,WindDirectionDegrees,WindSpeedMPH,WindSpeedGustMPH,Humidity,HourlyPrecipIn,Conditions,Clouds,dailyrainin,SoftwareType,DateUTC
2013-05-13 00:03:00,56.3,43.4,30.10,SE,129,0.0,6.0,62,0.00,SCT,SCT,0.00,WeatherDisplay:10.37,2013-05-13 05:03:00,
2013-05-13 00:09:00,56.2,43.3,30.10,ESE,107,3.0,5.0,62,0.00,SCT,SCT,0.00,WeatherDisplay:10.37,2013-05-13 05:09:00,
2013-05-13 00:15:00,55.9,43.5,30.10,ESE,108,1.0,5.0,63,0.00,SCT,SCT,0.00,WeatherDisplay:10.37,2013-05-13 05:15:00,
2013-05-13 00:21:00,55.6,43.2,30.10,ESE,117,2.0,5.0,63,0.00,SCT,SCT,0.00,WeatherDisplay:10.37,2013-05-13 05:21:00,
2013-05-13 00:27:00,55.4,43.4,30.10,ESE,113,1.0,3.0,64,0.00,SCT,SCT,0.00,WeatherDisplay:10.37,2013-05-13 05:27:00,
2013-05-13 00:33:00,55.4,43.4,30.10,SSE,158,2.0,6.0,64,0.00,SCT,SCT,0.00,WeatherDisplay:10.37,2013-05-13 05:33:00,
2013-05-13 00:39:00,55.1,43.1,30.10,SE,133,0.0,7.0,64,0.00,SCT,SCT,0.00,WeatherDisplay:10.37,2013-05-13 05:39:00,
2013-05-13 00:45:00,55.1,43.1,30.10,ESE,120,0.0,0.0,64,0.00,SCT,SCT,0.00,WeatherDisplay:10.37,2013-05-13 05:45:00,
2013-05-13 00:51:00,55.1,43.1,30.10,SE,135,0.0,0.0,64,0.00,SCT,SCT,0.00,WeatherDisplay:10.37,2013-05-13 05:51:00,
2013-05-13 00:57:00,55.1,43.1,30.10,SE,135,0.0,0.0,64,0.00,SCT,SCT,0.00,WeatherDisplay:10.37,2013-05-13 05:57:00,
2013-05-13 01:03:00,55.1,43.1,30.10,SE,135,0.0,0.0,64,0.00,SCT,SCT,0.00,WeatherDisplay:10.37,2013-05-13 06:03:00,
2013-05-13 01:09:00,55.1,43.1,30.10,SE,135,0.0,0.0,64,0.00,SCT,SCT,0.00,WeatherDisplay:10.37,2013-05-13 06:09:00,
2013-05-13 01:15:00,55.1,43.1,30.10,SE,135,0.0,0.0,64,0.00,SCT,SCT,0.00,WeatherDisplay:10.37,2013-05-13 06:15:00,
2013-05-13 01:21:00,55.1,43.1,30.10,SE,135,0.0,0.0,64,0.00,SCT,SCT,0.00,WeatherDisplay:10.37,2013-05-13 06:21:00,
2013-05-13 01:27:00,55.1,43.1,30.10,SE,135,0.0,0.0,64,0.00,SCT,SCT,0.00,WeatherDisplay:10.37,2013-05-13 06:27:00,
2013-05-13 01:33:00,55.1,43.1,30.10,SE,135,0.0,0.0,64,0.00,SCT,SCT,0.00,WeatherDisplay:10.37,2013-05-13 06:33:00,
2013-05-13 01:39:00,55.1,43.1,30.10,SE,135,0.0,0.0,64,0.00,SCT,SCT,0.00,WeatherDisplay:10.37,2013-05-13 06:39:00,
2013-05-13 01:45:00,55.1,43.1,30.10,SE,135,0.0,0.0,64,0.00,SCT,SCT,0.00,WeatherDisplay:10.37,2013-05-13 06:45:00,
2013-05-13 01:51:00,55.1,43.1,30.10,SE,135,0.0,0.0,64,0.00,SCT,SCT,0.00,WeatherDisplay:10.37,2013-05-13 06:51:00,
2013-05-13 01:57:00,55.1,43.1,30.10,SE,135,0.0,0.0,64,0.00,SCT,SCT,0.00,WeatherDisplay:10.37,2013-05-13 06:57:00,
2013-05-13 02:03:00,55.1,43.1,30.10,SE,135,0.0,0.0,64,0.00,FEW,FEW,0.00,WeatherDisplay:10.37,2013-05-13 07:03:00,
2013-05-13 02:09:00,55.1,43.1,30.10,SE,135,0.0,0.0,64,0.00,FEW,FEW,0.00,WeatherDisplay:10.37,2013-05-13 07:09:00,
2013-05-13 02:15:00,55.1,43.1,30.10,SE,135,0.0,0.0,64,0.00,FEW,FEW,0.00,WeatherDisplay:10.37,2013-05-13 07:15:00,
2013-05-13 02:21:00,55.1,43.1,30.10,SE,135,0.0,0.0,64,0.00,FEW,FEW,0.00,WeatherDisplay:10.37,2013-05-13 07:21:00,
2013-05-13 02:27:00,55.1,43.1,30.10,SE,135,0.0,0.0,64,0.00,FEW,FEW,0.00,WeatherDisplay:10.37,2013-05-13 07:27:00,
2013-05-13 02:33:00,55.1,43.1,30.10,SE,135,0.0,0.0,64,0.00,FEW,FEW,0.00,WeatherDisplay:10.37,2013-05-13 07:33:00,
2013-05-13 02:39:00,55.1,43.1,30.10,SE,135,0.0,0.0,64,0.00,FEW,FEW,0.00,WeatherDisplay:10.37,2013-05-13 07:39:00,
2013-05-13 02:45:00,55.1,43.1,30.10,SE,135,0.0,0.0,64,0.00,FEW,FEW,0.00,WeatherDisplay:10.37,2013-05-13 07:45:00,
2013-05-13 02:51:00,55.1,43.1,30.10,SE,135,0.0,0.0,64,0.00,FEW,FEW,0.00,WeatherDisplay:10.37,2013-05-13 07:51:00,
2013-05-13 02:57:00,55.1,43.1,30.10,SE,135,0.0,0.0,64,0.00,FEW,FEW,0.00,WeatherDisplay:10.37,2013-05-13 07:57:00,
2013-05-13 03:03:00,55.1,43.1,30.10,SE,135,0.0,0.0,64,0.00,SCT,SCT,0.00,WeatherDisplay:10.37,2013-05-13 08:03:00,
2013-05-13 03:09:00,55.1,43.1,30.10,SE,135,0.0,0.0,64,0.00,SCT,SCT,0.00,WeatherDisplay:10.37,2013-05-13 08:09:00,
2013-05-13 03:15:00,55.1,43.1,30.10,SE,135,0.0,0.0,64,0.00,SCT,SCT,0.00,WeatherDisplay:10.37,2013-05-13 08:15:00,
2013-05-13 03:21:00,55.1,43.1,30.10,SE,135,0.0,0.0,64,0.00,SCT,SCT,0.00,WeatherDisplay:10.37,2013-05-13 08:21:00,
2013-05-13 03:27:00,55.1,43.1,30.10,SE,135,0.0,0.0,64,0.00,SCT,SCT,0.00,WeatherDisplay:10.37,2013-05-13 08:27:00,
2013-05-13 03:33:00,55.1,43.1,30.10,SE,135,0.0,0.0,64,0.00,SCT,SCT,0.00,WeatherDisplay:10.37,2013-05-13 08:33:00,
2013-05-13 03:39:00,55.1,43.1,30.10,SE,135,0.0,0.0,64,0.00,SCT,SCT,0.00,WeatherDisplay:10.37,2013-05-13 08:39:00,
2013-05-13 03:45:00,55.1,43.1,30.10,SE,135,0.0,0.0,64,0.00,SCT,SCT,0.00,WeatherDisplay:10.37,2013-05-13 08:45:00,
2013-05-13 03:51:00,55.1,43.1,30.10,SE,135,0.0,0.0,64,0.00,SCT,SCT,0.00,WeatherDisplay:10.37,2013-05-13 08:51:00,
2013-05-13 03:57:00,55.1,43.1,30.10,SE,135,0.0,0.0,64,0.00,SCT,SCT,0.00,WeatherDisplay:10.37,2013-05-13 08:57:00,
2013-05-13 04:03:00,55.1,43.1,30.10,SE,135,0.0,0.0,64,0.00,FEW,FEW,0.00,WeatherDisplay:10.37,2013-05-13 09:03:00,
2013-05-13 04:09:00,55.1,43.1,30.10,SE,135,0.0,0.0,64,0.00,FEW,FEW,0.00,WeatherDisplay:10.37,2013-05-13 09:09:00,
2013-05-13 04:15:00,55.1,43.1,30.10,SE,135,0.0,0.0,64,0.00,FEW,FEW,0.00,WeatherDisplay:10.37,2013-05-13 09:15:00,
2013-05-13 04:21:00,55.1,43.1,30.10,SE,135,0.0,0.0,64,0.00,FEW,FEW,0.00,WeatherDisplay:10.37,2013-05-13 09:21:00,
2013-05-13 04:27:00,55.1,43.1,30.10,SE,135,0.0,0.0,64,0.00,FEW,FEW,0.00,WeatherDisplay:10.37,2013-05-13 09:27:00,
2013-05-13 04:33:00,55.1,43.1,30.10,SE,135,0.0,0.0,64,0.00,FEW,FEW,0.00,WeatherDisplay:10.37,2013-05-13 09:33:00,
2013-05-13 04:39:00,55.1,43.1,30.10,SE,135,0.0,0.0,64,0.00,FEW,FEW,0.00,WeatherDisplay:10.37,2013-05-13 09:39:00,
2013-05-13 04:45:00,55.1,43.1,30.10,SE,135,0.0,0.0,64,0.00,FEW,FEW,0.00,WeatherDisplay:10.37,2013-05-13 09:45:00,
2013-05-13 04:51:00,55.1,43.1,30.10,SE,135,0.0,0.0,64,0.00,FEW,FEW,0.00,WeatherDisplay:10.37,2013-05-13 09:51:00,
2013-05-13 04:57:00,55.1,43.1,30.10,SE,135,0.0,0.0,64,0.00,FEW,FEW,0.00,WeatherDisplay:10.37,2013-05-13 09:57:00,
2013-05-13 05:03:00,55.1,43.1,30.10,SE,135,0.0,0.0,64,0.00,FEW,FEW,0.00,WeatherDisplay:10.37,2013-05-13 10:03:00,
2013-05-13 05:09:00,55.1,43.1,30.10,SE,135,0.0,0.0,64,0.00,FEW,FEW,0.00,WeatherDisplay:10.37,2013-05-13 10:09:00,
2013-05-13 05:15:00,55.1,43.1,30.10,SE,135,0.0,0.0,64,0.00,FEW,FEW,0.00,WeatherDisplay:10.37,2013-05-13 10:15:00,
2013-05-13 05:21:00,55.1,43.1,30.10,SE,135,0.0,0.0,64,0.00,FEW,FEW,0.00,WeatherDisplay:10.37,2013-05-13 10:21:00,
2013-05-13 05:27:00,55.1,43.1,30.10,SE,135,0.0,0.0,64,0.00,FEW,FEW,0.00,WeatherDisplay:10.37,2013-05-13 10:27:00,
2013-05-13 05:33:00,55.1,43.1,30.10,SE,135,0.0,0.0,64,0.00,FEW,FEW,0.00,WeatherDisplay:10.37,2013-05-13 10:33:00,
2013-05-13 05:39:00,55.1,43.1,30.10,SE,135,0.0,0.0,64,0.00,FEW,FEW,0.00,WeatherDisplay:10.37,2013-05-13 10:39:00,
2013-05-13 05:45:00,55.1,43.1,30.10,SE,135,0.0,0.0,64,0.00,FEW,FEW,0.00,WeatherDisplay:10.37,2013-05-13 10:45:00,
2013-05-13 05:51:00,55.1,43.1,30.10,SE,135,0.0,0.0,64,0.00,FEW,FEW,0.00,WeatherDisplay:10.37,2013-05-13 10:51:00,
2013-05-13 05:57:00,55.1,43.1,30.10,SE,135,0.0,0.0,64,0.00,FEW,FEW,0.00,WeatherDisplay:10.37,2013-05-13 10:57:00,
2013-05-13 06:03:00,55.1,43.1,30.10,SE,135,0.0,0.0,64,0.00,SCT,SCT,0.00,WeatherDisplay:10.37,2013-05-13 11:03:00,
2013-05-13 06:09:00,55.1,43.1,30.10,SE,135,0.0,0.0,64,0.00,SCT,SCT,0.00,WeatherDisplay:10.37,2013-05-13 11:09:00,
2013-05-13 06:15:00,55.1,43.1,30.10,SE,135,0.0,0.0,64,0.00,SCT,SCT,0.00,WeatherDisplay:10.37,2013-05-13 11:15:00,
2013-05-13 06:21:00,55.1,43.1,30.10,SE,135,0.0,0.0,64,0.00,SCT,SCT,0.00,WeatherDisplay:10.37,2013-05-13 11:21:00,
2013-05-13 06:27:00,55.1,43.1,30.10,SE,135,0.0,0.0,64,0.00,SCT,SCT,0.00,WeatherDisplay:10.37,2013-05-13 11:27:00,
2013-05-13 06:33:00,55.1,43.1,30.10,SE,135,0.0,0.0,64,0.00,SCT,SCT,0.00,WeatherDisplay:10.37,2013-05-13 11:33:00,
2013-05-13 06:39:00,55.1,43.1,30.10,SE,135,0.0,0.0,64,0.00,SCT,SCT,0.00,WeatherDisplay:10.37,2013-05-13 11:39:00,
2013-05-13 06:45:00,55.1,43.1,30.10,SE,135,0.0,0.0,64,0.00,SCT,SCT,0.00,WeatherDisplay:10.37,2013-05-13 11:45:00,
2013-05-13 06:51:00,55.1,43.1,30.10,SE,135,0.0,0.0,64,0.00,SCT,SCT,0.00,WeatherDisplay:10.37,2013-05-13 11:51:00,
2013-05-13 06:57:00,55.1,43.1,30.10,SE,135,0.0,0.0,64,0.00,SCT,SCT,0.00,WeatherDisplay:10.37,2013-05-13 11:57:00,
2013-05-13 07:03:00,55.1,43.1,30.10,SE,135,0.0,0.0,64,0.00,SCT,SCT,0.00,WeatherDisplay:10.37,2013-05-13 12:03:00,
2013-05-13 07:09:00,55.1,43.1,30.10,SE,135,0.0,0.0,64,0.00,SCT,SCT,0.00,WeatherDisplay:10.37,2013-05-13 12:09:00,
2013-05-13 07:15:00,55.1,43.1,30.10,SE,135,0.0,0.0,64,0.00,SCT,SCT,0.00,WeatherDisplay:10.37,2013-05-13 12:15:00,
2013-05-13 07:21:00,47.7,41.8,30.06,North,353,0.0,0.0,80,0.00,SCT,SCT,0.00,WeatherDisplay:10.37,2013-05-13 12:21:00,
2013-05-13 07:27:00,48.1,42.2,30.06,NNW,338,0.0,0.0,80,0.00,SCT,SCT,0.00,WeatherDisplay:10.37,2013-05-13 12:27:00,
2013-05-13 07:33:00,49.0,43.1,30.06,NE,40,0.0,0.0,80,0.00,SCT,SCT,0.00,WeatherDisplay:10.37,2013-05-13 12:33:00,
2013-05-13 07:39:00,49.9,43.3,30.06,East,91,0.0,0.0,78,0.00,SCT,SCT,0.00,WeatherDisplay:10.37,2013-05-13 12:39:00,
2013-05-13 07:45:00,51.6,43.9,30.06,East,99,0.0,0.0,75,0.00,SCT,SCT,0.00,WeatherDisplay:10.37,2013-05-13 12:45:00,
2013-05-13 07:51:00,52.6,44.2,30.07,ESE,104,1.0,3.0,73,0.00,SCT,SCT,0.00,WeatherDisplay:10.37,2013-05-13 12:51:00,
2013-05-13 07:57:00,53.5,44.3,30.07,SSE,147,0.0,0.0,71,0.00,SCT,SCT,0.00,WeatherDisplay:10.37,2013-05-13 12:57:00,
2013-05-13 08:03:00,54.1,44.6,30.07,ESE,121,0.0,0.0,70,0.00,FEW,FEW,0.00,WeatherDisplay:10.37,2013-05-13 13:03:00,
2013-05-13 08:09:00,54.7,44.7,30.07,SE,143,2.0,4.0,69,0.00,FEW,FEW,0.00,WeatherDisplay:10.37,2013-05-13 13:09:00,
2013-05-13 08:15:00,55.4,45.0,30.06,SSE,156,0.0,3.0,68,0.00,FEW,FEW,0.00,WeatherDisplay:10.37,2013-05-13 13:15:00,
2013-05-13 08:21:00,56.2,45.0,30.06,SSE,151,0.0,0.0,66,0.00,FEW,FEW,0.00,WeatherDisplay:10.37,2013-05-13 13:21:00,
2013-05-13 08:27:00,57.3,45.3,30.07,SSE,156,0.0,0.0,64,0.00,FEW,FEW,0.00,WeatherDisplay:10.37,2013-05-13 13:27:00,
2013-05-13 08:33:00,58.0,45.4,30.07,SSE,154,2.0,7.0,63,0.00,FEW,FEW,0.00,WeatherDisplay:10.37,2013-05-13 13:33:00,
2013-05-13 08:39:00,58.1,45.5,30.07,SE,144,0.0,4.0,63,0.00,FEW,FEW,0.00,WeatherDisplay:10.37,2013-05-13 13:39:00,
2013-05-13 08:45:00,58.5,45.5,30.07,SSE,159,0.0,0.0,62,0.00,FEW,FEW,0.00,WeatherDisplay:10.37,2013-05-13 13:45:00,
2013-05-13 08:51:00,58.9,46.3,30.07,SSE,147,0.0,0.0,63,0.00,FEW,FEW,0.00,WeatherDisplay:10.37,2013-05-13 13:51:00,
2013-05-13 08:57:00,59.0,46.0,30.07,SE,125,0.0,0.0,62,0.00,FEW,FEW,0.00,WeatherDisplay:10.37,2013-05-13 13:57:00,
2013-05-13 09:03:00,59.4,45.5,30.07,WSW,256,3.0,5.0,60,0.00,FEW,FEW,0.00,WeatherDisplay:10.37,2013-05-13 14:03:00,
2013-05-13 09:09:00,59.6,46.5,30.07,SSE,162,0.0,7.0,62,0.00,FEW,FEW,0.00,WeatherDisplay:10.37,2013-05-13 14:09:00,
2013-05-13 09:15:00,60.0,46.9,30.07,South,178,3.0,4.0,62,0.00,FEW,FEW,0.00,WeatherDisplay:10.37,2013-05-13 14:15:00,
2013-05-13 09:21:00,59.1,46.5,30.07,West,274,5.0,7.0,63,0.00,FEW,FEW,0.00,WeatherDisplay:10.37,2013-05-13 14:21:00,
2013-05-13 09:27:00,60.6,47.0,30.07,WNW,302,0.0,0.0,61,0.00,FEW,FEW,0.00,WeatherDisplay:10.37,2013-05-13 14:27:00,
2013-05-13 09:33:00,61.3,46.8,30.07,SE,127,0.0,0.0,59,0.00,FEW,FEW,0.00,WeatherDisplay:10.37,2013-05-13 14:33:00,
2013-05-13 09:39:00,61.0,47.1,30.07,South,170,0.0,0.0,60,0.00,FEW,FEW,0.00,WeatherDisplay:10.37,2013-05-13 14:39:00,
2013-05-13 09:45:00,60.9,47.8,30.07,NW,311,0.0,0.0,62,0.00,FEW,FEW,0.00,WeatherDisplay:10.37,2013-05-13 14:45:00,
2013-05-13 09:51:00,62.2,48.1,30.07,NW,312,0.0,0.0,60,0.00,FEW,FEW,0.00,WeatherDisplay:10.37,2013-05-13 14:51:00,
2013-05-13 09:57:00,63.4,47.9,30.07,NW,304,0.0,4.0,57,0.00,FEW,FEW,0.00,WeatherDisplay:10.37,2013-05-13 14:57:00,
2013-05-13 10:03:00,65.2,48.6,30.07,South,169,0.0,0.0,55,0.00,FEW,FEW,0.00,WeatherDisplay:10.37,2013-05-13 15:03:00,
2013-05-13 10:09:00,64.8,48.3,30.07,SSE,160,0.0,0.0,55,0.00,FEW,FEW,0.00,WeatherDisplay:10.37,2013-05-13 15:09:00,
2013-05-13 10:15:00,64.9,48.8,30.07,South,190,0.0,0.0,56,0.00,FEW,FEW,0.00,WeatherDisplay:10.37,2013-05-13 15:15:00,
2013-05-13 10:21:00,64.8,48.2,30.07,West,269,0.0,6.0,55,0.00,FEW,FEW,0.00,WeatherDisplay:10.37,2013-05-13 15:21:00,
2013-05-13 10:27:00,65.7,48.6,30.08,SW,236,1.0,4.0,54,0.00,FEW,FEW,0.00,WeatherDisplay:10.37,2013-05-13 15:27:00,
2013-05-13 10:33:00,65.8,48.7,30.08,ENE,62,2.0,6.0,54,0.00,FEW,FEW,0.00,WeatherDisplay:10.37,2013-05-13 15:33:00,
2013-05-13 10:39:00,65.8,49.1,30.07,NW,313,6.0,7.0,55,0.00,FEW,FEW,0.00,WeatherDisplay:10.37,2013-05-13 15:39:00,
2013-05-13 10:45:00,66.6,49.5,30.07,WNW,300,3.0,5.0,54,0.00,FEW,FEW,0.00,WeatherDisplay:10.37,2013-05-13 15:45:00,
2013-05-13 10:51:00,66.7,49.6,30.08,WNW,288,5.0,6.0,54,0.00,FEW,FEW,0.00,WeatherDisplay:10.37,2013-05-13 15:51:00,
2013-05-13 10:57:00,68.3,51.0,30.08,West,270,1.0,3.0,54,0.00,FEW,FEW,0.00,WeatherDisplay:10.37,2013-05-13 15:57:00,
2013-05-13 11:03:00,68.2,49.3,30.08,WSW,246,3.0,5.0,51,0.00,FEW,FEW,0.00,WeatherDisplay:10.37,2013-05-13 16:03:00,
2013-05-13 11:09:00,69.6,49.6,30.08,North,352,0.0,0.0,49,0.00,FEW,FEW,0.00,WeatherDisplay:10.37,2013-05-13 16:09:00,
2013-05-13 11:15:00,70.2,50.6,30.08,WNW,300,1.0,5.0,50,0.00,FEW,FEW,0.00,WeatherDisplay:10.37,2013-05-13 16:15:00,
2013-05-13 11:21:00,70.6,51.1,30.08,South,169,0.0,0.0,50,0.00,FEW,FEW,0.00,WeatherDisplay:10.37,2013-05-13 16:21:00,
2013-05-13 11:27:00,70.5,50.9,30.08,WSW,257,3.0,7.0,50,0.00,FEW,FEW,0.00,WeatherDisplay:10.37,2013-05-13 16:27:00,
2013-05-13 11:33:00,71.7,52.0,30.08,NW,326,0.0,2.0,50,0.00,FEW,FEW,0.00,WeatherDisplay:10.37,2013-05-13 16:33:00,
2013-05-13 11:39:00,72.3,50.9,30.09,NW,321,3.0,7.0,47,0.00,FEW,FEW,0.00,WeatherDisplay:10.37,2013-05-13 16:39:00,
2013-05-13 11:45:00,73.6,52.2,30.09,SE,131,5.0,7.0,47,0.00,FEW,FEW,0.00,WeatherDisplay:10.37,2013-05-13 16:45:00,
2013-05-13 11:51:00,74.5,52.4,30.08,SE,131,5.0,7.0,46,0.00,FEW,FEW,0.00,WeatherDisplay:10.37,2013-05-13 16:51:00,
2013-05-13 11:57:00,73.7,52.3,30.08,SE,133,0.0,4.0,47,0.00,FEW,FEW,0.00,WeatherDisplay:10.37,2013-05-13 16:57:00,
2013-05-13 12:03:00,75.5,52.6,30.08,ESE,116,3.0,8.0,45,0.00,FEW,FEW,0.00,WeatherDisplay:10.37,2013-05-13 17:03:00,
2013-05-13 12:09:00,75.2,52.4,30.08,SE,124,5.0,6.0,45,0.00,FEW,FEW,0.00,WeatherDisplay:10.37,2013-05-13 17:09:00,
2013-05-13 12:15:00,75.1,51.7,30.08,ESE,117,6.0,7.0,44,0.00,FEW,FEW,0.00,WeatherDisplay:10.37,2013-05-13 17:15:00,
2013-05-13 12:21:00,75.1,52.3,30.08,ESE,109,0.0,7.0,45,0.00,FEW,FEW,0.00,WeatherDisplay:10.37,2013-05-13 17:21:00,
2013-05-13 12:27:00,75.8,53.5,30.07,ESE,122,5.0,7.0,46,0.00,FEW,FEW,0.00,WeatherDisplay:10.37,2013-05-13 17:27:00,
2013-05-13 12:33:00,75.9,53.1,30.07,ESE,110,5.0,7.0,45,0.00,FEW,FEW,0.00,WeatherDisplay:10.37,2013-05-13 17:33:00,
2013-05-13 12:39:00,76.7,53.7,30.08,ESE,110,3.0,7.0,45,0.00,FEW,FEW,0.00,WeatherDisplay:10.37,2013-05-13 17:39:00,
2013-05-13 12:45:00,77.0,53.4,30.08,ESE,116,5.0,8.0,44,0.00,FEW,FEW,0.00,WeatherDisplay:10.37,2013-05-13 17:45:00,
2013-05-13 12:51:00,77.0,54.0,30.07,ESE,108,5.0,8.0,45,0.00,FEW,FEW,0.00,WeatherDisplay:10.37,2013-05-13 17:51:00,
2013-05-13 12:57:00,77.5,53.9,30.07,SE,126,5.0,7.0,44,0.00,FEW,FEW,0.00,WeatherDisplay:10.37,2013-05-13 17:57:00,
2013-05-13 13:03:00,77.6,53.3,30.07,SSE,162,3.0,7.0,43,0.00,FEW,FEW,0.00,WeatherDisplay:10.37,2013-05-13 18:03:00,
2013-05-13 13:09:00,78.9,54.5,30.07,SSE,161,5.0,9.0,43,0.00,FEW,FEW,0.00,WeatherDisplay:10.37,2013-05-13 18:09:00,
2013-05-13 13:15:00,78.7,54.3,30.07,SSE,160,3.0,9.0,43,0.00,FEW,FEW,0.00,WeatherDisplay:10.37,2013-05-13 18:15:00,
2013-05-13 13:21:00,79.4,53.0,30.07,ESE,119,7.0,9.0,40,0.00,FEW,FEW,0.00,WeatherDisplay:10.37,2013-05-13 18:21:00,
2013-05-13 13:27:00,79.2,52.8,30.07,East,89,5.0,8.0,40,0.00,FEW,FEW,0.00,WeatherDisplay:10.37,2013-05-13 18:27:00,
2013-05-13 13:33:00,79.2,52.8,30.07,ESE,116,5.0,8.0,40,0.00,CLR,CLR,0.00,WeatherDisplay:10.37,2013-05-13 18:33:00,
2013-05-13 13:39:00,80.3,53.8,30.07,SE,129,3.0,12.0,40,0.00,CLR,CLR,0.00,WeatherDisplay:10.37,2013-05-13 18:39:00,
2013-05-13 13:45:00,80.6,54.0,30.07,SSE,152,7.0,13.0,40,0.00,CLR,CLR,0.00,WeatherDisplay:10.37,2013-05-13 18:45:00,
2013-05-13 13:51:00,80.2,54.3,30.06,ESE,105,7.0,9.0,41,0.00,CLR,CLR,0.00,WeatherDisplay:10.37,2013-05-13 18:51:00,
2013-05-13 13:57:00,81.2,54.6,30.06,ESE,102,6.0,7.0,40,0.00,CLR,CLR,0.00,WeatherDisplay:10.37,2013-05-13 18:57:00,
2013-05-13 14:03:00,81.4,55.5,30.06,ESE,113,5.0,7.0,41,0.00,SCT,SCT,0.00,WeatherDisplay:10.37,2013-05-13 19:03:00,
2013-05-13 14:09:00,81.6,54.9,30.06,East,99,5.0,6.0,40,0.00,SCT,SCT,0.00,WeatherDisplay:10.37,2013-05-13 19:09:00,
2013-05-13 14:15:00,81.8,54.4,30.05,East,100,6.0,8.0,39,0.00,SCT,SCT,0.00,WeatherDisplay:10.37,2013-05-13 19:15:00,
2013-05-13 14:21:00,82.4,54.9,30.05,SE,137,8.0,9.0,39,0.00,SCT,SCT,0.00,WeatherDisplay:10.37,2013-05-13 19:21:00,
2013-05-13 14:27:00,81.9,55.2,30.05,SE,132,5.0,8.0,40,0.00,SCT,SCT,0.00,WeatherDisplay:10.37,2013-05-13 19:27:00,
2013-05-13 14:33:00,82.4,55.6,30.05,ESE,116,5.0,7.0,40,0.00,SCT,SCT,0.00,WeatherDisplay:10.37,2013-05-13 19:33:00,
2013-05-13 14:39:00,82.2,56.1,30.05,ESE,118,6.0,8.0,41,0.00,SCT,SCT,0.00,WeatherDisplay:10.37,2013-05-13 19:39:00,
2013-05-13 14:45:00,84.0,56.3,30.05,East,96,2.0,5.0,39,0.00,SCT,SCT,0.00,WeatherDisplay:10.37,2013-05-13 19:45:00,
2013-05-13 14:51:00,84.2,55.8,30.05,ESE,122,5.0,7.0,38,0.00,SCT,SCT,0.00,WeatherDisplay:10.37,2013-05-13 19:51:00,
2013-05-13 14:57:00,83.2,54.2,30.05,SE,138,8.0,12.0,37,0.00,SCT,SCT,0.00,WeatherDisplay:10.37,2013-05-13 19:57:00,
2013-05-13 15:03:00,83.7,53.9,30.05,ESE,118,3.0,9.0,36,0.00,SCT,SCT,0.00,WeatherDisplay:10.37,2013-05-13 20:03:00,
2013-05-13 15:09:00,84.3,55.2,30.05,South,191,8.0,9.0,37,0.00,SCT,SCT,0.00,WeatherDisplay:10.37,2013-05-13 20:09:00,
2013-05-13 15:15:00,84.3,55.2,30.04,SSE,153,7.0,10.0,37,0.00,SCT,SCT,0.00,WeatherDisplay:10.37,2013-05-13 20:15:00,
2013-05-13 15:21:00,85.3,55.3,30.04,SSE,158,6.0,9.0,36,0.00,SCT,SCT,0.00,WeatherDisplay:10.37,2013-05-13 20:21:00,
2013-05-13 15:27:00,83.6,55.3,30.04,SSE,150,8.0,12.0,38,0.00,SCT,SCT,0.00,WeatherDisplay:10.37,2013-05-13 20:27:00,
2013-05-13 15:33:00,84.2,55.1,30.04,SE,139,9.0,12.0,37,0.00,SCT,SCT,0.00,WeatherDisplay:10.37,2013-05-13 20:33:00,
2013-05-13 15:39:00,84.8,55.6,30.03,SSE,148,6.0,7.0,37,0.00,SCT,SCT,0.00,WeatherDisplay:10.37,2013-05-13 20:39:00,
2013-05-13 15:45:00,84.1,55.0,30.03,SE,132,7.0,12.0,37,0.00,SCT,SCT,0.00,WeatherDisplay:10.37,2013-05-13 20:45:00,
2013-05-13 15:51:00,85.7,54.9,30.03,SE,126,3.0,9.0,35,0.00,SCT,SCT,0.00,WeatherDisplay:10.37,2013-05-13 20:51:00,
2013-05-13 15:57:00,85.0,53.5,30.03,SE,124,6.0,9.0,34,0.00,SCT,SCT,0.00,WeatherDisplay:10.37,2013-05-13 20:57:00,
2013-05-13 16:03:00,84.8,53.3,30.03,SSE,150,6.0,7.0,34,0.00,SCT,SCT,0.00,WeatherDisplay:10.37,2013-05-13 21:03:00,
2013-05-13 16:09:00,84.1,55.0,30.03,South,169,9.0,13.0,37,0.00,SCT,SCT,0.00,WeatherDisplay:10.37,2013-05-13 21:09:00,
2013-05-13 16:15:00,84.4,56.8,30.02,South,171,6.0,7.0,39,0.00,SCT,SCT,0.00,WeatherDisplay:10.37,2013-05-13 21:15:00,
2013-05-13 16:21:00,85.2,57.5,30.02,SE,138,8.0,12.0,39,0.00,SCT,SCT,0.00,WeatherDisplay:10.37,2013-05-13 21:21:00,
2013-05-13 16:27:00,83.9,56.3,30.02,SE,142,10.0,16.0,39,0.00,SCT,SCT,0.00,WeatherDisplay:10.37,2013-05-13 21:27:00,
2013-05-13 16:33:00,85.4,56.9,30.02,SE,143,1.0,6.0,38,0.00,SCT,SCT,0.00,WeatherDisplay:10.37,2013-05-13 21:33:00,
2013-05-13 16:39:00,85.3,54.6,30.01,South,170,8.0,13.0,35,0.00,SCT,SCT,0.00,WeatherDisplay:10.37,2013-05-13 21:39:00,
2013-05-13 16:45:00,84.5,55.4,30.01,SSW,194,6.0,8.0,37,0.00,SCT,SCT,0.00,WeatherDisplay:10.37,2013-05-13 21:45:00,
2013-05-13 16:51:00,84.1,55.8,30.01,SE,136,7.0,12.0,38,0.00,SCT,SCT,0.00,WeatherDisplay:10.37,2013-05-13 21:51:00,
2013-05-13 16:57:00,83.8,56.9,30.01,SE,145,8.0,13.0,40,0.00,SCT,SCT,0.00,WeatherDisplay:10.37,2013-05-13 21:57:00,
2013-05-13 17:03:00,83.6,56.8,30.00,SE,135,7.0,14.0,40,0.00,SCT,SCT,0.00,WeatherDisplay:10.37,2013-05-13 22:03:00,
2013-05-13 17:09:00,83.6,56.0,30.00,ESE,123,7.0,10.0,39,0.00,SCT,SCT,0.00,WeatherDisplay:10.37,2013-05-13 22:09:00,
2013-05-13 17:15:00,83.7,54.6,30.01,SSE,154,7.0,9.0,37,0.00,SCT,SCT,0.00,WeatherDisplay:10.37,2013-05-13 22:15:00,
2013-05-13 17:21:00,85.7,56.4,30.01,SE,137,5.0,10.0,37,0.00,SCT,SCT,0.00,WeatherDisplay:10.37,2013-05-13 22:21:00,
2013-05-13 17:27:00,84.2,57.9,30.00,SSE,159,6.0,10.0,41,0.00,SCT,SCT,0.00,WeatherDisplay:10.37,2013-05-13 22:27:00,
2013-05-13 17:33:00,83.9,57.0,30.00,SSE,159,7.0,12.0,40,0.00,SCT,SCT,0.00,WeatherDisplay:10.37,2013-05-13 22:33:00,
2013-05-13 17:39:00,83.3,56.4,30.00,SE,145,8.0,13.0,40,0.00,SCT,SCT,0.00,WeatherDisplay:10.37,2013-05-13 22:39:00,
2013-05-13 17:45:00,83.5,57.3,30.00,SE,139,9.0,12.0,41,0.00,SCT,SCT,0.00,WeatherDisplay:10.37,2013-05-13 22:45:00,
2013-05-13 17:51:00,84.2,58.6,30.00,SSE,159,8.0,13.0,42,0.00,SCT,SCT,0.00,WeatherDisplay:10.37,2013-05-13 22:51:00,
2013-05-13 17:57:00,84.2,58.6,30.00,South,180,7.0,7.0,42,0.00,SCT,SCT,0.00,WeatherDisplay:10.37,2013-05-13 22:57:00,
2013-05-13 18:03:00,84.2,58.6,30.00,South,180,7.0,7.0,42,0.00,SCT,SCT,0.00,WeatherDisplay:10.37,2013-05-13 23:03:00,
2013-05-13 18:09:00,85.5,58.5,30.00,South,177,8.0,10.0,40,0.00,SCT,SCT,0.00,WeatherDisplay:10.37,2013-05-13 23:09:00,
2013-05-13 18:15:00,84.9,57.9,29.99,SSE,154,9.0,14.0,40,0.00,SCT,SCT,0.00,WeatherDisplay:10.37,2013-05-13 23:15:00,
2013-05-13 18:21:00,85.0,57.9,29.99,SSE,153,8.0,9.0,40,0.00,SCT,SCT,0.00,WeatherDisplay:10.37,2013-05-13 23:21:00,
2013-05-13 18:27:00,84.1,57.1,29.98,SE,137,9.0,12.0,40,0.00,SCT,SCT,0.00,WeatherDisplay:10.37,2013-05-13 23:27:00,
2013-05-13 18:33:00,85.0,58.7,29.98,ESE,121,5.0,7.0,41,0.00,SCT,SCT,0.00,WeatherDisplay:10.37,2013-05-13 23:33:00,
2013-05-13 18:39:00,84.2,58.0,29.98,SSE,155,9.0,13.0,41,0.00,SCT,SCT,0.00,WeatherDisplay:10.37,2013-05-13 23:39:00,
2013-05-13 18:45:00,83.7,58.1,29.98,SE,138,6.0,12.0,42,0.00,SCT,SCT,0.00,WeatherDisplay:10.37,2013-05-13 23:45:00,
2013-05-13 18:51:00,83.7,58.2,29.98,SSE,154,5.0,8.0,42,0.00,SCT,SCT,0.00,WeatherDisplay:10.37,2013-05-13 23:51:00,
2013-05-13 18:57:00,83.0,58.8,29.98,SSE,149,7.0,10.0,44,0.00,SCT,SCT,0.00,WeatherDisplay:10.37,2013-05-13 23:57:00,
2013-05-13 19:03:00,83.4,59.9,29.98,SE,144,0.0,7.0,45,0.00,SCT,SCT,0.00,WeatherDisplay:10.37,2013-05-14 00:03:00,
2013-05-13 19:09:00,83.3,59.7,29.98,SE,138,7.0,8.0,45,0.00,SCT,SCT,0.00,WeatherDisplay:10.37,2013-05-14 00:09:00,
2013-05-13 19:15:00,81.5,59.4,29.97,SSE,156,9.0,14.0,47,0.00,SCT,SCT,0.00,WeatherDisplay:10.37,2013-05-14 00:15:00,
2013-05-13 19:21:00,81.4,59.8,29.97,SSE,163,7.0,14.0,48,0.00,SCT,SCT,0.00,WeatherDisplay:10.37,2013-05-14 00:21:00,
2013-05-13 19:27:00,81.3,59.7,29.97,SE,138,5.0,9.0,48,0.00,SCT,SCT,0.00,WeatherDisplay:10.37,2013-05-14 00:27:00,
2013-05-13 19:33:00,80.8,59.2,29.97,SE,146,7.0,12.0,48,0.00,SCT,SCT,0.00,WeatherDisplay:10.37,2013-05-14 00:33:00,
2013-05-13 19:39:00,80.5,59.5,29.97,SE,132,6.0,9.0,49,0.00,SCT,SCT,0.00,WeatherDisplay:10.37,2013-05-14 00:39:00,
2013-05-13 19:45:00,80.0,59.7,29.97,SE,138,7.0,12.0,50,0.00,SCT,SCT,0.00,WeatherDisplay:10.37,2013-05-14 00:45:00,
2013-05-13 19:51:00,79.6,59.8,29.97,SSE,161,5.0,9.0,51,0.00,SCT,SCT,0.00,WeatherDisplay:10.37,2013-05-14 00:51:00,
2013-05-13 19:57:00,78.8,59.6,29.97,SSE,148,6.0,7.0,52,0.00,SCT,SCT,0.00,WeatherDisplay:10.37,2013-05-14 00:57:00,
2013-05-13 20:03:00,78.5,59.9,29.97,ESE,120,6.0,9.0,53,0.00,SCT,SCT,0.00,WeatherDisplay:10.37,2013-05-14 01:03:00,
2013-05-13 20:09:00,78.1,59.5,29.97,East,97,2.0,4.0,53,0.00,SCT,SCT,0.00,WeatherDisplay:10.37,2013-05-14 01:09:00,
2013-05-13 20:15:00,77.2,58.7,29.96,ESE,110,3.0,7.0,53,0.00,SCT,SCT,0.00,WeatherDisplay:10.37,2013-05-14 01:15:00,
2013-05-13 20:21:00,77.0,59.0,29.96,East,97,0.0,4.0,54,0.00,SCT,SCT,0.00,WeatherDisplay:10.37,2013-05-14 01:21:00,
2013-05-13 20:27:00,76.2,58.3,29.96,SE,125,5.0,8.0,54,0.00,SCT,SCT,0.00,WeatherDisplay:10.37,2013-05-14 01:27:00,
2013-05-13 20:33:00,75.8,58.4,29.96,ESE,104,0.0,2.0,55,0.00,SCT,SCT,0.00,WeatherDisplay:10.37,2013-05-14 01:33:00,
2013-05-13 20:39:00,75.2,58.4,29.97,ESE,106,2.0,5.0,56,0.00,SCT,SCT,0.00,WeatherDisplay:10.37,2013-05-14 01:39:00,
2013-05-13 20:45:00,74.9,58.6,29.97,SE,128,3.0,7.0,57,0.00,SCT,SCT,0.00,WeatherDisplay:10.37,2013-05-14 01:45:00,
2013-05-13 20:51:00,74.3,58.0,29.97,SE,130,5.0,7.0,57,0.00,SCT,SCT,0.00,WeatherDisplay:10.37,2013-05-14 01:51:00,
2013-05-13 20:57:00,74.2,58.4,29.97,SE,133,2.0,7.0,58,0.00,SCT,SCT,0.00,WeatherDisplay:10.37,2013-05-14 01:57:00,
2013-05-13 21:03:00,73.8,58.1,29.97,SE,139,2.0,6.0,58,0.00,SCT,SCT,0.00,WeatherDisplay:10.37,2013-05-14 02:03:00,
2013-05-13 21:09:00,73.4,57.7,29.97,SE,127,0.0,2.0,58,0.00,SCT,SCT,0.00,WeatherDisplay:10.37,2013-05-14 02:09:00,
2013-05-13 21:15:00,73.3,58.1,29.97,SE,124,0.0,0.0,59,0.00,SCT,SCT,0.00,WeatherDisplay:10.37,2013-05-14 02:15:00,
2013-05-13 21:21:00,73.0,57.8,29.97,ESE,120,0.0,2.0,59,0.00,SCT,SCT,0.00,WeatherDisplay:10.37,2013-05-14 02:21:00,
2013-05-13 21:27:00,72.7,57.5,29.97,ESE,116,1.0,4.0,59,0.00,SCT,SCT,0.00,WeatherDisplay:10.37,2013-05-14 02:27:00,
2013-05-13 21:33:00,72.4,57.2,29.97,ESE,114,1.0,7.0,59,0.00,SCT,SCT,0.00,WeatherDisplay:10.37,2013-05-14 02:33:00,
2013-05-13 21:39:00,72.4,57.2,29.97,SE,128,1.0,6.0,59,0.00,SCT,SCT,0.00,WeatherDisplay:10.37,2013-05-14 02:39:00,
2013-05-13 21:45:00,72.3,57.2,29.97,SE,127,2.0,6.0,59,0.00,SCT,SCT,0.00,WeatherDisplay:10.37,2013-05-14 02:45:00,
2013-05-13 21:51:00,72.2,57.0,29.97,SE,127,2.0,6.0,59,0.00,SCT,SCT,0.00,WeatherDisplay:10.37,2013-05-14 02:51:00,
2013-05-13 21:57:00,72.2,57.0,29.97,ESE,113,1.0,6.0,59,0.00,SCT,SCT,0.00,WeatherDisplay:10.37,2013-05-14 02:57:00,
2013-05-13 22:03:00,71.8,56.7,29.97,ESE,114,0.0,6.0,59,0.00,FEW,FEW,0.00,WeatherDisplay:10.37,2013-05-14 03:03:00,
2013-05-13 22:09:00,71.6,56.5,29.97,SE,124,2.0,6.0,59,0.00,FEW,FEW,0.00,WeatherDisplay:10.37,2013-05-14 03:09:00,
2013-05-13 22:15:00,71.5,56.8,29.97,ESE,115,1.0,4.0,60,0.00,FEW,FEW,0.00,WeatherDisplay:10.37,2013-05-14 03:15:00,
2013-05-13 22:21:00,71.6,56.9,29.97,SE,130,0.0,0.0,60,0.00,FEW,FEW,0.00,WeatherDisplay:10.37,2013-05-14 03:21:00,
2013-05-13 22:27:00,71.1,56.5,29.97,ESE,116,0.0,0.0,60,0.00,FEW,FEW,0.00,WeatherDisplay:10.37,2013-05-14 03:27:00,
2013-05-13 22:33:00,71.4,56.8,29.97,SSE,153,6.0,8.0,60,0.00,FEW,FEW,0.00,WeatherDisplay:10.37,2013-05-14 03:33:00,
2013-05-13 22:39:00,71.1,56.5,29.97,SE,139,0.0,7.0,60,0.00,FEW,FEW,0.00,WeatherDisplay:10.37,2013-05-14 03:39:00,
2013-05-13 22:45:00,70.7,56.1,29.97,ESE,111,2.0,6.0,60,0.00,FEW,FEW,0.00,WeatherDisplay:10.37,2013-05-14 03:45:00,
2013-05-13 22:51:00,70.2,56.5,29.97,ESE,111,0.0,0.0,62,0.00,FEW,FEW,0.00,WeatherDisplay:10.37,2013-05-14 03:51:00,
2013-05-13 22:57:00,70.4,56.7,29.97,SE,134,1.0,4.0,62,0.00,FEW,FEW,0.00,WeatherDisplay:10.37,2013-05-14 03:57:00,
2013-05-13 23:03:00,70.4,56.7,29.96,SE,131,6.0,8.0,62,0.00,FEW,FEW,0.00,WeatherDisplay:10.37,2013-05-14 04:03:00,
2013-05-13 23:06:00,70.0,56.4,29.96,SE,124,3.0,5.0,62,0.00,FEW,FEW,0.00,WeatherDisplay:10.37,2013-05-14 04:06:00,
2013-05-13 23:09:00,70.0,56.3,29.96,SE,124,5.0,8.0,62,0.00,FEW,FEW,0.00,WeatherDisplay:10.37,2013-05-14 04:09:00,
2013-05-13 23:15:00,69.8,56.2,29.96,SE,142,3.0,7.0,62,0.00,FEW,FEW,0.00,WeatherDisplay:10.37,2013-05-14 04:15:00,
2013-05-13 23:21:00,69.5,56.4,29.96,SE,136,3.0,7.0,63,0.00,FEW,FEW,0.00,WeatherDisplay:10.37,2013-05-14 04:21:00,
2013-05-13 23:24:00,69.5,56.3,29.96,SE,138,0.0,7.0,63,0.00,FEW,FEW,0.00,WeatherDisplay:10.37,2013-05-14 04:24:00,
2013-05-13 23:30:00,69.1,55.9,29.96,SE,144,5.0,7.0,63,0.00,FEW,FEW,0.00,WeatherDisplay:10.37,2013-05-14 04:30:00,
2013-05-13 23:36:00,69.1,56.4,29.96,SSE,163,5.0,7.0,64,0.00,FEW,FEW,0.00,WeatherDisplay:10.37,2013-05-14 04:36:00,
2013-05-13 23:42:00,68.9,56.2,29.96,SE,139,3.0,8.0,64,0.00,FEW,FEW,0.00,WeatherDisplay:10.37,2013-05-14 04:42:00,
2013-05-13 23:48:00,68.4,55.7,29.96,SE,140,2.0,7.0,64,0.00,FEW,FEW,0.00,WeatherDisplay:10.37,2013-05-14 04:48:00,
2013-05-13 23:54:00,68.4,55.7,29.95,SE,144,5.0,7.0,64,0.00,FEW,FEW,0.00,WeatherDisplay:10.37,2013-05-14 04:54:00,